Home > Weather > Peoria > Past weeks

Flag for U.S.A. Weather for the Past 2 Weeks in Peoria, Illinois, U.S.A.

Now
36 °F

Clear.


Feels Like: 28 °F
Forecast: 34 / 45 °F
Wind: 10 mph from Southwest

Location: Greater Peoria Regional Airport

Current Time: Feb 7, 2016 at 7:22:22 AM

Latest Report: Feb 7, 2016 at 6:54 AM


Visibility: 10 mi

Pressure: 29.92 "Hg

Humidity: 73%

Dew point: 28 °F

Location of PeoriaLocation

Historic Weather in Peoria — Graph

°F

Peoria Temperature Yesterday

Maximum temperature yesterday: 47 °F (at 2:54 PM)
Minimum temperature yesterday: 25 °F (at 1:54 AM)
Average temperature yesterday: 34 °F

High & Low Weather Summary for the Past Weeks

 TemperatureHumidityPressure
High54 °F (Jan 31, 12:54 PM)97% (Feb 2, 9:54 PM)30.45 "Hg (Feb 2, 9:54 PM)
Low16 °F (Jan 23, 6:54 AM)41% (Feb 6, 2:54 PM)29.48 "Hg (Feb 2, 2:54 PM)
Average34 °F74%29.98 "Hg
* Reported Jan 23 5:54 AM — Feb 7 5:54 AM, Peoria, Weather by CustomWeather, © 2016

Note: Actual official high and low records may vary slightly from our data, if they occured in-between our weather recording intervals... More about our weather records

Advertising

Peoria Weather History for the Previous 24 Hours

 ConditionsComfort  
Time TempWeatherWind HumidityBarometerVisibility
5:54 AM
Sun, Feb 7
36 °FClear.10 mph73%29.93 "Hg10 mi
4:54 AM36 °FClear.9 mph73%29.96 "Hg10 mi
3:54 AM36 °FClear.12 mph73%29.98 "Hg10 mi
2:54 AM36 °FClear.10 mph73%30.02 "Hg10 mi
1:54 AM35 °FClear.9 mph75%30.06 "Hg10 mi
12:54 AM34 °FClear.8 mph76%30.08 "Hg10 mi
11:54 PM
Sat, Feb 6
31 °FClear.6 mph79%30.09 "Hg10 mi
10:54 PM32 °FClear.6 mph73%30.11 "Hg10 mi
9:54 PM34 °FClear.5 mph70%30.13 "Hg10 mi
8:54 PM34 °FClear.3 mph70%30.15 "Hg10 mi
7:54 PM35 °FClear.No wind67%30.16 "Hg10 mi
6:54 PM37 °FClear.No wind62%30.17 "Hg10 mi
5:54 PM38 °FClear.7 mph60%30.18 "Hg10 mi
4:54 PM43 °FSunny.8 mph49%30.17 "Hg10 mi
3:54 PM47 °FSunny.12 mph42%30.18 "Hg10 mi
2:54 PM47 °FSunny.12 mph41%30.19 "Hg10 mi
1:54 PM46 °FSunny.16 mph46%30.21 "Hg10 mi
12:54 PM44 °FSunny.10 mph51%30.23 "Hg10 mi
11:54 AM41 °FSunny.8 mph58%30.27 "Hg10 mi
10:54 AM38 °FSunny.8 mph63%30.29 "Hg10 mi
9:54 AM35 °FSunny.7 mph70%30.32 "Hg9 mi
8:54 AM30 °FIce fog.8 mph85%30.32 "Hg6 mi
7:54 AM26 °FIce fog.No wind92%30.32 "Hg4 mi
Weather by CustomWeather, © 2016

See weather overviewHow to use our weather pages